TimePDT,TemperatureF,Dew PointF,Humidity,Sea Level PressureIn,VisibilityMPH,Wind Direction,Wind SpeedMPH,Gust SpeedMPH,PrecipitationIn,Events,Conditions,WindDirDegrees,DateUTC
12:00 AM,54.3,31.8,42,30.25,-9999.0,NNE,2.3,-,N/A,,Unknown,20,2012-10-06 07:00:00
1:00 AM,54.9,31.6,41,30.26,-9999.0,North,3.5,-,N/A,,Unknown,10,2012-10-06 08:00:00
2:00 AM,53.2,31.3,43,30.27,-9999.0,Calm,Calm,-,N/A,,Unknown,0,2012-10-06 09:00:00
3:00 AM,52.9,33.4,48,30.27,-9999.0,NNE,1.2,-,N/A,,Unknown,30,2012-10-06 10:00:00
4:00 AM,51.4,33.8,51,30.26,-9999.0,NNE,1.2,-,N/A,,Unknown,30,2012-10-06 11:00:00
5:00 AM,52,35,40,30.25,,NE,1.2,,,,,40,2012-10-06 12:00:00
6:00 AM,52.0,34.2,51,30.26,-9999.0,NE,1.2,-,N/A,,Unknown,40,2012-10-06 13:00:00
7:00 AM,52.5,31.3,44,30.27,-9999.0,North,2.3,-,N/A,,Unknown,360,2012-10-06 14:00:00
8:00 AM,53.2,34.0,48,30.26,-9999.0,NNE,2.3,-,N/A,,Unknown,30,2012-10-06 15:00:00
9:00 AM,53.2,35.8,52,30.27,-9999.0,Calm,Calm,-,N/A,,Unknown,0,2012-10-06 16:00:00
10:00 AM,57.4,39.4,51,30.28,-9999.0,SW,1.2,-,N/A,,Unknown,220,2012-10-06 17:00:00
11:00 AM,61,36,28,30.27,,SSW,2.3,,,,,210,2012-10-06 18:00:00
11:00 AM,61.3,36.3,39,30.27,-9999.0,SSW,2.3,-,N/A,,Unknown,210,2012-10-06 18:00:00
12:00 PM,59.9,36.3,41,30.27,-9999.0,South,2.3,-,N/A,,Unknown,190,2012-10-06 19:00:00
1:00 PM,59.4,37.9,45,30.25,-9999.0,South,2.3,-,N/A,,Unknown,190,2012-10-06 20:00:00
2:00 PM,65.1,42.3,43,30.23,-9999.0,West,1.2,-,N/A,,Unknown,270,2012-10-06 21:00:00
3:00 PM,66.0,46.2,49,30.21,-9999.0,SSW,1.2,-,N/A,,Unknown,200,2012-10-06 22:00:00
4:00 PM,67.6,45.7,45,30.19,-9999.0,WSW,1.2,-,N/A,,Unknown,240,2012-10-06 23:00:00
5:00 PM,67,44,32,30.17,,Calm,Calm,,,,,,2012-10-07 00:00:00
5:00 PM,66.7,44.2,44,30.17,-9999.0,Calm,Calm,-,N/A,,Unknown,0,2012-10-07 00:00:00
6:00 PM,62.2,42.6,49,30.16,-9999.0,Calm,Calm,-,N/A,,Unknown,0,2012-10-07 01:00:00
7:00 PM,60.4,44.2,55,30.15,-9999.0,NE,1.2,-,N/A,,Unknown,40,2012-10-07 02:00:00
8:00 PM,58.6,40.5,51,30.15,-9999.0,Calm,Calm,-,N/A,,Unknown,0,2012-10-07 03:00:00
9:00 PM,58.5,40.1,51,30.14,-9999.0,NNE,1.2,-,N/A,,Unknown,30,2012-10-07 04:00:00
10:00 PM,56.1,39.6,54,30.14,-9999.0,Calm,Calm,-,N/A,,Unknown,0,2012-10-07 05:00:00
11:00 PM,57,39,39,30.14,,North,2.3,,,,,10,2012-10-07 06:00:00
11:00 PM,56.8,39.0,51,30.14,-9999.0,North,2.3,-,N/A,,Unknown,10,2012-10-07 06:00:00